Wind_Speed
21 21 21 21 22 22 21 21 21 21 21 22 23 23 23 22 22 23 24 24 24 24 24 24 24 24 24 24 24 24 24 25 25 25 26 26 26 26
23 23 23 23 23 23 23 23 23 23 23 23 24 24 25 24 24 24 24 24 25 25 24 25 25 25 25 25 25 25 25 26 26 27 27 28 28 28
25 24 24 25 25 25 24 25 25 25 25 25 25 25 26 25 24 24 24 25 25 25 25 25 25 26 26 25 26 26 26 26 27 27 28 29 29 29
25 26 26 26 26 25 25 26 26 26 26 26 26 26 26 27 26 26 26 26 26 26 25 26 26 26 26 26 27 27 27 27 28 28 28 29 30 30
27 28 28 27 26 26 26 26 27 27 27 27 26 27 27 27 27 27 27 27 27 27 27 27 27 27 27 28 29 29 29 29 29 29 30 30 30 30
29 29 28 27 27 27 27 27 28 28 28 28 27 27 28 28 28 28 28 28 28 28 27 27 27 28 29 29 30 30 30 31 31 30 30 31 31 31
29 29 29 28 28 29 29 29 29 29 29 29 29 29 29 29 29 29 30 29 29 29 28 28 28 29 29 30 31 32 32 32 31 31 31 32 32 32
30 30 30 30 30 30 29 29 30 30 30 30 30 30 30 31 31 31 31 31 30 30 30 30 30 30 30 31 31 31 32 32 32 32 33 33 33 33
31 31 31 31 30 30 30 29 30 30 31 31 31 31 32 31 31 30 30 30 30 31 31 31 31 31 31 31 32 32 32 33 32 33 33 34 34 34
32 33 32 31 30 30 30 31 31 32 32 32 32 33 32 32 31 30 29 30 30 31 31 31 31 31 31 31 31 32 33 33 34 34 34 34 34 34
33 33 33 33 32 31 32 33 33 33 33 33 33 34 33 32 31 30 30 30 30 30 30 30 30 30 30 30 30 31 32 32 33 33 33 33 33 34
34 34 35 34 34 33 34 34 34 34 34 34 33 32 32 31 31 31 30 30 30 29 29 29 29 29 29 30 30 30 30 31 31 32 32 32 32 32
34 34 35 34 33 34 34 34 33 33 33 33 32 32 32 32 32 32 31 30 30 29 29 30 30 30 29 29 29 29 29 30 31 31 31 31 31 32
35 35 35 34 34 34 34 34 34 33 33 33 33 33 33 33 32 32 31 31 31 30 29 29 29 28 28 28 28 28 28 29 30 30 30 30 30 30
36 36 35 34 34 34 34 34 34 34 33 33 32 32 32 32 32 31 31 30 30 30 30 29 29 29 29 29 28 28 29 30 30 30 29 29 29 29
34 34 34 33 33 33 33 33 33 33 32 32 32 31 31 31 31 30 30 30 30 29 29 30 29 28 28 28 28 28 29 29 30 30 29 28 28 28
33 32 32 32 31 32 32 32 31 30 30 29 30 30 30 29 29 29 30 30 29 29 28 28 28 28 28 28 28 28 28 28 28 28 27 27 27 27
31 31 31 30 30 30 30 30 29 28 27 27 27 28 28 28 28 28 29 29 29 28 28 28 28 27 27 28 29 28 27 27 26 26 26 26 26 26
30 30 29 29 29 29 29 28 27 26 26 26 25 25 26 26 27 27 27 27 27 27 27 27 27 27 27 27 27 28 28 26 26 25 25 24 24 25
29 29 29 28 28 27 27 26 25 25 26 25 25 25 25 25 26 26 26 26 26 25 25 26 26 26 27 27 27 28 28 27 26 25 25 24 24 24
27 27 26 26 27 26 25 25 24 25 25 25 25 25 25 25 25 25 25 26 25 25 25 25 26 26 27 27 26 26 26 26 25 25 25 24 23 23
26 26 25 25 25 24 24 24 25 25 25 24 24 23 23 23 24 24 24 24 24 25 25 25 25 25 25 25 25 24 24 24 23 23 23 22 22 22
25 25 25 25 25 24 24 25 25 24 24 23 22 22 22 22 22 23 23 23 23 24 24 24 24 25 25 25 24 23 22 22 21 21 21 21 21 22
Wind_Direction
300 299 297 295 293 292 291 289 288 287 287 287 286 285 284 284 284 284 282 282 282 279 275 275 275 274 273 272 271 269 268 266 264 264 263 263 263 262
299 299 297 293 292 290 289 288 287 285 285 285 285 285 284 284 284 284 283 282 281 280 278 275 274 273 273 273 271 269 268 268 266 264 263 263 262 262
298 297 297 295 292 289 288 287 287 287 287 285 284 284 284 283 282 282 282 282 280 279 278 278 275 273 272 272 271 270 269 268 269 266 263 263 263 263
296 296 296 295 294 291 287 286 287 287 287 287 286 286 285 285 285 283 283 282 279 278 278 277 276 274 271 270 271 271 271 271 271 270 266 264 263 263
295 296 296 295 293 291 289 287 287 287 287 287 287 287 287 285 285 284 284 282 281 280 278 277 278 277 275 272 271 272 272 271 271 270 267 265 264 263
295 295 294 293 292 291 288 288 287 286 286 287 287 287 287 285 284 283 283 283 281 279 278 277 278 278 276 274 272 272 272 270 269 268 267 265 265 264
294 294 295 294 293 292 289 287 287 287 287 287 287 288 287 285 284 282 282 281 281 279 277 278 278 278 277 275 273 272 271 269 268 267 266 265 265 264
293 292 293 293 293 293 291 289 287 287 287 287 287 287 287 286 284 283 282 280 279 278 279 279 279 278 277 275 274 271 271 269 268 267 267 267 265 265
293 292 292 291 290 289 288 289 289 288 288 287 286 287 286 285 285 283 282 280 280 280 280 280 280 279 277 275 274 273 271 270 269 268 268 267 265 264
295 293 291 289 287 286 285 286 287 288 288 287 288 288 286 285 283 283 282 282 282 282 281 280 279 278 277 276 275 272 271 271 271 270 269 267 265 264
293 292 290 289 288 288 288 288 288 288 288 288 288 288 287 286 284 284 283 283 283 284 284 282 280 278 277 277 277 275 273 273 272 270 269 266 264 263
292 291 291 290 289 288 289 289 288 288 288 288 287 287 287 287 285 285 284 283 284 285 285 283 282 281 279 278 278 278 276 274 272 271 269 266 264 263
291 290 290 289 288 288 289 288 287 287 287 287 287 286 286 286 285 284 284 284 284 285 285 284 283 281 281 279 278 277 276 275 274 271 269 268 265 263
290 289 289 289 289 289 289 288 288 288 287 286 285 285 285 285 284 283 282 283 283 283 283 283 284 282 280 279 277 277 277 276 275 273 271 269 266 263
289 289 288 288 288 288 287 287 287 286 286 285 284 283 283 283 283 282 282 282 282 282 282 282 283 283 281 281 279 278 277 277 277 276 274 271 266 263
290 290 289 288 288 288 287 288 287 287 286 285 284 283 283 282 282 282 282 281 280 280 280 280 281 281 282 282 281 280 279 280 279 276 273 269 265 264
292 291 290 289 288 288 288 289 288 287 286 285 284 283 283 282 282 283 284 283 282 281 280 281 280 280 281 282 283 282 280 280 280 277 274 269 265 264
294 292 289 286 287 288 288 288 288 288 286 285 285 285 285 284 283 284 285 285 283 281 280 280 280 279 280 282 283 281 280 279 279 277 275 271 268 266
290 291 290 288 288 287 288 288 288 289 288 287 287 288 287 285 284 285 286 287 285 282 281 281 280 280 279 280 280 281 280 278 277 276 274 272 269 266
292 291 291 289 289 288 287 286 288 289 289 288 287 286 287 287 286 285 286 286 285 283 282 282 282 282 281 281 280 280 279 278 275 274 273 272 269 266
294 293 291 289 288 288 288 287 287 289 290 289 287 286 286 287 288 286 286 285 284 284 283 283 283 284 284 284 283 281 278 277 275 274 272 271 267 265
293 293 291 291 289 289 289 288 288 289 289 288 287 287 288 288 289 290 289 287 286 285 284 284 285 285 285 285 284 281 278 275 273 272 271 270 267 264
296 294 293 292 291 289 288 289 289 289 289 287 287 288 289 289 289 290 291 291 290 288 286 284 284 284 285 283 282 280 277 275 273 270 269 265 264 263
Height
5852 5851 5849 5848 5847 5846 5846 5845 5845 5844 5843 5842 5841 5840 5839 5839 5838 5837 5837 5836 5836 5835 5835 5835 5835 5835 5835 5835 5835 5835 5835 5836 5836 5837 5838 5838 5839 5840
5847 5845 5844 5842 5841 5840 5839 5839 5838 5837 5837 5836 5835 5834 5833 5832 5832 5830 5830 5829 5829 5828 5828 5828 5828 5828 5827 5827 5828 5828 5828 5828 5828 5829 5830 5831 5831 5832
5841 5839 5838 5836 5835 5834 5833 5832 5831 5830 5829 5829 5828 5827 5826 5825 5825 5824 5823 5822 5822 5821 5820 5820 5820 5820 5820 5820 5820 5820 5820 5820 5820 5821 5822 5822 5823 5824
5835 5833 5831 5829 5828 5826 5825 5825 5824 5823 5822 5822 5820 5820 5819 5818 5817 5816 5816 5815 5814 5813 5813 5813 5812 5812 5812 5812 5812 5812 5812 5812 5812 5813 5813 5814 5815 5815
5828 5826 5824 5822 5821 5819 5818 5817 5816 5815 5815 5814 5813 5812 5811 5811 5810 5809 5808 5807 5806 5805 5805 5805 5804 5804 5804 5804 5804 5804 5804 5804 5804 5804 5804 5805 5805 5806
5820 5818 5816 5815 5813 5812 5811 5810 5809 5807 5807 5806 5805 5804 5803 5802 5802 5801 5800 5799 5798 5797 5796 5796 5795 5795 5795 5795 5795 5794 5794 5795 5795 5795 5795 5795 5796 5797
5812 5810 5808 5807 5805 5804 5802 5801 5800 5799 5799 5798 5797 5796 5795 5794 5793 5792 5791 5790 5789 5788 5788 5787 5786 5786 5785 5785 5785 5785 5785 5785 5785 5785 5785 5786 5786 5787
5804 5802 5800 5798 5797 5795 5793 5792 5792 5791 5790 5789 5788 5787 5786 5784 5783 5782 5781 5781 5780 5779 5778 5778 5777 5776 5775 5775 5774 5774 5774 5774 5775 5775 5775 5775 5776 5777
5795 5793 5790 5789 5788 5786 5785 5784 5783 5781 5781 5780 5779 5777 5776 5775 5774 5772 5771 5770 5770 5769 5768 5768 5767 5766 5765 5765 5764 5764 5764 5764 5764 5764 5764 5765 5766 5766
5786 5784 5782 5780 5779 5778 5777 5776 5774 5773 5771 5770 5769 5767 5766 5765 5764 5763 5762 5761 5760 5759 5758 5757 5757 5756 5755 5754 5754 5753 5753 5753 5753 5754 5754 5754 5755 5756
5778 5776 5774 5772 5770 5769 5768 5767 5765 5763 5762 5760 5759 5758 5756 5755 5754 5753 5752 5751 5750 5749 5748 5747 5746 5745 5745 5744 5744 5743 5743 5742 5742 5742 5743 5743 5744 5745
5768 5766 5764 5762 5761 5759 5758 5757 5755 5754 5752 5751 5749 5748 5747 5746 5744 5743 5742 5741 5740 5740 5739 5737 5736 5735 5735 5734 5733 5733 5732 5732 5731 5731 5732 5732 5733 5734
5759 5756 5754 5752 5751 5749 5748 5747 5745 5743 5742 5741 5740 5738 5737 5736 5735 5734 5733 5732 5731 5730 5730 5728 5727 5725 5724 5724 5723 5722 5722 5722 5721 5721 5721 5722 5723 5724
5749 5746 5745 5743 5741 5739 5738 5737 5735 5733 5732 5731 5730 5729 5727 5726 5725 5724 5723 5722 5721 5720 5719 5718 5717 5715 5714 5714 5714 5713 5712 5712 5712 5711 5711 5712 5712 5713
5738 5736 5734 5733 5731 5729 5728 5726 5724 5723 5722 5721 5720 5719 5717 5716 5715 5714 5713 5712 5711 5711 5710 5708 5707 5706 5705 5704 5703 5703 5703 5702 5702 5701 5701 5702 5702 5702
5728 5726 5724 5722 5720 5719 5718 5716 5714 5713 5711 5710 5709 5708 5707 5706 5706 5705 5704 5703 5702 5702 5700 5699 5698 5697 5696 5695 5694 5694 5693 5693 5692 5691 5691 5691 5692 5693
5717 5716 5714 5712 5710 5709 5708 5706 5704 5703 5702 5700 5699 5699 5698 5697 5696 5695 5694 5694 5693 5692 5691 5690 5689 5688 5687 5686 5685 5685 5684 5683 5682 5682 5681 5682 5682 5683
5708 5706 5704 5702 5701 5700 5699 5697 5696 5694 5693 5691 5690 5689 5688 5687 5687 5686 5685 5684 5683 5682 5682 5681 5680 5679 5679 5678 5677 5676 5675 5674 5674 5673 5672 5673 5673 5674
5699 5697 5695 5694 5692 5691 5690 5688 5687 5686 5684 5683 5682 5681 5680 5679 5678 5677 5676 5675 5674 5673 5672 5672 5671 5670 5670 5669 5668 5666 5666 5666 5665 5665 5664 5664 5665 5666
5690 5689 5687 5685 5684 5682 5681 5680 5679 5678 5676 5675 5673 5672 5671 5670 5669 5668 5667 5666 5665 5664 5663 5663 5662 5661 5660 5660 5659 5658 5657 5657 5656 5656 5656 5656 5657 5657
5682 5680 5678 5677 5675 5674 5673 5671 5671 5669 5668 5666 5665 5664 5663 5662 5661 5660 5658 5658 5657 5656 5655 5655 5653 5652 5651 5651 5650 5650 5649 5648 5648 5648 5648 5648 5649 5649
5675 5673 5671 5669 5668 5666 5665 5664 5662 5661 5660 5658 5657 5656 5655 5654 5653 5651 5650 5649 5648 5648 5647 5646 5645 5644 5643 5642 5642 5641 5641 5640 5640 5640 5640 5640 5641 5642
5667 5665 5663 5661 5660 5658 5657 5656 5654 5653 5652 5650 5649 5648 5647 5646 5645 5644 5643 5642 5640 5639 5638 5637 5637 5636 5635 5634 5634 5633 5633 5632 5632 5632 5633 5633 5634 5634